Location: High Cliff State Park
(44.1557°N, 88.2948°W)
Time: 03:31:12
(UTC-05:00)

Amateur Radio Satellites - All Passes

Search period start: 26 October 2014 03:01
Search period end: 27 October 2014 03:01
Location: High Cliff State Park, 44.1557°N, 88.2948°W

Satellite Date Start Highest point End Downlink Frequencies (MHz)
Time Altitude Azimuth
JAS-1B 26 Oct 03:01:40 03:08:19 83° 286° (WNW) 03:16:20 435.800 - 435.900 CW/SSB
Oscar 19 26 Oct 03:02:22 03:07:24 59° 288° (WNW) 03:12:25 437.125 CW, 437.150 USB
Gurwin Techsat 1B 26 Oct 03:04:38 03:09:28 34° 96° (E) 03:14:16 435.225 FM
TMSAT-1 26 Oct 03:15:05 03:19:49 32° 96° (E) 03:24:31 436.925 FM
AO-7 26 Oct 03:22:21 03:25:03 12° 85° (E) 03:27:46 29.400 - 29.500 MHz
AO-27 26 Oct 03:23:09 03:28:25 89° 284° (WNW) 03:33:39 436.795 MHz FM
AO-Echo 26 Oct 03:33:01 03:38:13 57° 289° (WNW) 03:43:25 ?
Oscar 16 26 Oct 03:49:08 03:53:09 24° 297° (WNW) 03:57:09 437.025 USB, Beacon 2401.1428
Sapphire 26 Oct 03:54:50 04:00:12 69° 118° (ESE) 04:05:36 437.095 MHz 1200 baud AX-25 AFSK
Uribyol 2 26 Oct 04:10:37 04:15:17 34° 294° (WNW) 04:19:55 436.500 FM
ITAMSAT 1 26 Oct 04:17:03 04:21:39 32° 294° (WNW) 04:26:13 435.822 SSB
PCSat 26 Oct 04:17:12 04:22:36 75° 302° (WNW) 04:28:04 145.825 MHz
OPAL 26 Oct 04:33:52 04:38:45 45° 67° (ENE) 04:43:35 ?
Gurwin Techsat 1B 26 Oct 04:44:39 04:49:23 34° 294° (WNW) 04:54:06 435.225 FM
JAS-1B 26 Oct 04:54:16 04:58:16 17° 303° (WNW) 05:02:38 435.800 - 435.900 CW/SSB
TMSAT-1 26 Oct 04:54:57 04:59:45 36° 293° (WNW) 05:04:32 436.925 FM
RS-15 26 Oct 04:59:54 05:09:51 36° 30° (NNE) 05:20:05 29.354 - 29.394 USB, Beacon 29.352 USB
JAS-2 26 Oct 05:01:05 05:06:46 21° 88° (E) 05:12:24 435.800 - 435.900 CW/SSB, 435.910 FM
AO-27 26 Oct 05:04:36 05:07:10 14° 303° (WNW) 05:09:43 436.795 MHz FM
AO-7 26 Oct 05:11:09 05:19:26 65° 104° (ESE) 05:27:41 29.400 - 29.500 MHz
Uosat F 26 Oct 05:19:02 05:24:05 65° 102° (ESE) 05:29:05 435.120 FM
Hamsat 26 Oct 05:37:35 05:39:51 14° 90° (E) 05:42:06 145.90 MHz
Sapphire 26 Oct 05:39:51 05:44:08 23° 318° (NW) 05:48:27 437.095 MHz 1200 baud AX-25 AFSK
PCSat 26 Oct 06:03:34 06:06:59 17° 324° (NW) 06:10:24 145.825 MHz
OPAL 26 Oct 06:13:41 06:17:48 24° 264° (W) 06:21:55 ?
STRAND 1 26 Oct 06:20:29 06:25:23 48° 70° (ENE) 06:30:21 ?
Saudisat 1A 26 Oct 06:25:59 06:28:37 16° 110° (ESE) 06:31:15 436.775 MHz
JAS-2 26 Oct 06:44:44 06:52:34 86° 286° (WNW) 07:00:22 435.800 - 435.900 CW/SSB, 435.910 FM
Uosat F 26 Oct 06:59:01 07:02:21 18° 300° (WNW) 07:05:41 435.120 FM
AO-7 26 Oct 07:04:36 07:11:43 33° 304° (NW) 07:18:51 29.400 - 29.500 MHz
Hamsat 26 Oct 07:12:01 07:16:07 53° 287° (WNW) 07:20:13 145.90 MHz
RS-15 26 Oct 07:12:33 07:23:46 90° 237° (WSW) 07:35:27 29.354 - 29.394 USB, Beacon 29.352 USB
SO-67 26 Oct 07:25:42 07:28:40 26° 96° (E) 07:31:35 435.3500 MHz FM
STRAND 1 26 Oct 08:00:51 08:04:49 22° 267° (W) 08:08:50 ?
Saudisat 1A 26 Oct 08:03:20 08:07:41 63° 308° (NW) 08:12:05 436.775 MHz
HO-68 26 Oct 08:15:00 08:17:47 12° 86° (E) 08:20:34 435.675 MHz FM
JAS-2 26 Oct 08:31:05 08:36:33 22° 305° (NW) 08:42:05 435.800 - 435.900 CW/SSB, 435.910 FM
MaSat-1 26 Oct 08:58:01 09:00:39 84° 64° (ENE) 09:03:04 437.345 MHz
SO-67 26 Oct 08:58:58 09:01:29 19° 292° (WNW) 09:04:00 435.3500 MHz FM
RS-15 26 Oct 09:26:22 09:34:42 25° 258° (WSW) 09:43:20 29.354 - 29.394 USB, Beacon 29.352 USB
Oscar 11 26 Oct 09:33:43 09:36:05 14° 90° (E) 09:38:27 145.825 FM, Beacon 2401.500 USB
Saudisat 1A 26 Oct 09:46:08 09:48:09 13° 328° (NNW) 09:50:10 436.775 MHz
HO-68 26 Oct 09:59:29 10:06:43 72° 104° (ESE) 10:13:52 435.675 MHz FM
KITSAT 1 26 Oct 10:22:04 10:25:47 14° 98° (E) 10:29:30 435.175 FM
ZACube-1 26 Oct 10:26:44 10:30:05 22° 93° (E) 10:33:22 437.345 MHz
UKube-1 26 Oct 10:28:12 10:32:31 56° 101° (E) 10:36:48 145.840 MHz, 145.915 MHz
Sapphire 26 Oct 10:59:00 11:02:26 17° 36° (NE) 11:05:52 437.095 MHz 1200 baud AX-25 AFSK
Oscar 10/S400 26 Oct 11:01:14 11:13:16 15° 151° (SSE) 11:22:36 145.825 - 145.975 CW/USB, Beacon 145.810 USB
Oscar 11 26 Oct 11:08:24 11:12:37 55° 287° (WNW) 11:16:49 145.825 FM, Beacon 2401.500 USB
FUNcube-1 26 Oct 11:10:27 11:14:42 67° 101° (E) 11:18:50 145.950 - 145.970 MHz USB
PCSat 26 Oct 11:20:56 11:25:15 23° 42° (NE) 11:29:32 145.825 MHz
HO-68 26 Oct 11:48:08 11:53:47 26° 304° (NW) 11:59:26 435.675 MHz FM
Oscar 16 26 Oct 11:52:12 11:54:09 12° 56° (NE) 11:56:06 437.025 USB, Beacon 2401.1428
ZACube-1 26 Oct 12:02:44 12:06:34 33° 291° (WNW) 12:10:19 437.345 MHz
JAS-1B 26 Oct 12:02:50 12:05:57 15° 56° (NE) 12:09:03 435.800 - 435.900 CW/SSB
UKube-1 26 Oct 12:05:36 12:08:16 16° 298° (WNW) 12:10:55 145.840 MHz, 145.915 MHz
ISS 26 Oct 12:08:07 12:11:07 32° 139° (SE) 12:14:08 145.800 FM
KITSAT 1 26 Oct 12:11:43 12:19:43 71° 118° (ESE) 12:27:46 435.175 FM
SO-50 26 Oct 12:20:49 12:24:57 37° 116° (ESE) 12:29:12 436.795 FM
Sapphire 26 Oct 12:41:21 12:46:49 76° 58° (ENE) 12:52:14 437.095 MHz 1200 baud AX-25 AFSK
Oscar 19 26 Oct 12:42:15 12:46:45 32° 66° (ENE) 12:51:15 437.125 CW, 437.150 USB
FUNcube-1 26 Oct 12:48:36 12:50:31 13° 299° (WNW) 12:52:25 145.950 - 145.970 MHz USB
PCSat 26 Oct 13:03:46 13:09:10 69° 243° (WSW) 13:14:32 145.825 MHz
AO-27 26 Oct 13:04:57 13:08:59 23° 62° (ENE) 13:13:01 436.795 MHz FM
AO-Echo 26 Oct 13:09:36 13:13:49 29° 65° (ENE) 13:18:10 ?
Oscar 16 26 Oct 13:27:31 13:32:41 81° 74° (ENE) 13:37:51 437.025 USB, Beacon 2401.1428
UOSAT-12 26 Oct 13:35:52 13:39:21 21° 112° (ESE) 13:42:53 437.025 FM, 437.400 FM
ISS 26 Oct 13:44:33 13:47:45 43° 337° (NNW) 13:50:58 145.800 FM
JAS-1B 26 Oct 13:50:01 13:55:55 83° 256° (WSW) 14:01:38 435.800 - 435.900 CW/SSB
Uribyol 2 26 Oct 13:50:20 13:55:27 58° 71° (ENE) 14:00:36 436.500 FM
ITAMSAT 1 26 Oct 13:56:48 14:01:56 62° 72° (ENE) 14:07:07 435.822 SSB
SO-50 26 Oct 14:01:29 14:05:33 31° 316° (NW) 14:09:43 436.795 FM
KITSAT 1 26 Oct 14:08:33 14:15:46 35° 320° (NW) 14:23:02 435.175 FM
Oscar 19 26 Oct 14:21:21 14:26:01 35° 263° (W) 14:30:43 437.125 CW, 437.150 USB
AO-7 26 Oct 14:21:48 14:28:02 25° 51° (NE) 14:34:17 29.400 - 29.500 MHz
Sapphire 26 Oct 14:26:17 14:29:34 17° 256° (WSW) 14:32:51 437.095 MHz 1200 baud AX-25 AFSK
Gurwin Techsat 1B 26 Oct 14:27:07 14:32:20 62° 72° (ENE) 14:37:36 435.225 FM
TMSAT-1 26 Oct 14:37:12 14:42:23 57° 71° (ENE) 14:47:36 436.925 FM
AO-27 26 Oct 14:43:05 14:48:09 51° 260° (W) 14:53:16 436.795 MHz FM
AO-Echo 26 Oct 14:47:55 14:52:27 36° 264° (W) 14:57:09 ?
Saudisat 1A 26 Oct 14:49:33 14:53:11 24° 42° (NE) 14:56:48 436.775 MHz
Uosat F 26 Oct 14:57:52 15:00:40 15° 58° (ENE) 15:03:29 435.120 FM
Oscar 16 26 Oct 15:10:18 15:12:39 13° 272° (W) 15:14:59 437.025 USB, Beacon 2401.1428
UOSAT-12 26 Oct 15:14:36 15:19:09 52° 310° (NW) 15:23:47 437.025 FM, 437.400 FM
JAS-2 26 Oct 15:20:06 15:21:00 10° 45° (NE) 15:21:54 435.800 - 435.900 CW/SSB, 435.910 FM
ISS 26 Oct 15:22:19 15:25:01 22° 357° (N) 15:27:43 145.800 FM
Uribyol 2 26 Oct 15:31:38 15:35:18 19° 269° (W) 15:38:59 436.500 FM
ITAMSAT 1 26 Oct 15:38:25 15:41:52 18° 269° (W) 15:45:20 435.822 SSB
Gurwin Techsat 1B 26 Oct 16:09:10 16:12:44 18° 269° (W) 16:16:20 435.225 FM
KITSAT 1 26 Oct 16:09:26 16:14:05 16° 349° (NNW) 16:18:45 435.175 FM
AO-7 26 Oct 16:11:34 16:19:52 87° 251° (WSW) 16:28:13 29.400 - 29.500 MHz
TMSAT-1 26 Oct 16:18:53 16:22:40 20° 269° (W) 16:26:29 436.925 FM
Saudisat 1A 26 Oct 16:28:43 16:33:00 49° 241° (WSW) 16:37:15 436.775 MHz
Hamsat 26 Oct 16:33:08 16:35:10 13° 62° (ENE) 16:37:12 145.90 MHz
Uosat F 26 Oct 16:33:47 16:38:48 79° 256° (WSW) 16:43:53 435.120 FM
UOSAT-12 26 Oct 16:58:21 17:00:23 13° 331° (NNW) 17:02:26 437.025 FM, 437.400 FM
JAS-2 26 Oct 16:58:23 17:04:14 50° 67° (ENE) 17:10:53 435.800 - 435.900 CW/SSB, 435.910 FM
ISS 26 Oct 16:59:22 17:02:24 31° 17° (NNE) 17:05:25 145.800 FM
SO-67 26 Oct 18:01:15 18:02:42 12° 65° (ENE) 18:04:10 435.3500 MHz FM
Hamsat 26 Oct 18:06:27 18:10:37 63° 259° (W) 18:14:47 145.90 MHz
KITSAT 1 26 Oct 18:08:02 18:13:21 18° 20° (NNE) 18:18:38 435.175 FM
AO-7 26 Oct 18:08:22 18:13:45 19° 271° (W) 18:19:11 29.400 - 29.500 MHz
OPAL 26 Oct 18:20:43 18:25:42 77° 105° (ESE) 18:30:38 ?
STRAND 1 26 Oct 18:31:05 18:33:48 14° 89° (E) 18:36:30 ?
ISS 26 Oct 18:35:57 18:39:16 60° 216° (SW) 18:42:33 145.800 FM
JAS-2 26 Oct 18:44:26 18:49:39 29° 269° (W) 18:55:28 435.800 - 435.900 CW/SSB, 435.910 FM
HO-68 26 Oct 18:46:29 18:49:55 14° 48° (NE) 18:53:21 435.675 MHz FM
SO-50 26 Oct 19:11:21 19:13:38 13° 30° (NNE) 19:15:56 436.795 FM
SO-67 26 Oct 19:32:00 19:35:18 44° 261° (W) 19:38:37 435.3500 MHz FM
OPAL 26 Oct 20:01:07 20:03:59 16° 304° (WNW) 20:06:50 ?
KITSAT 1 26 Oct 20:03:21 20:11:05 47° 46° (NE) 20:18:47 435.175 FM
STRAND 1 26 Oct 20:08:24 20:13:34 75° 287° (WNW) 20:18:41 ?
HO-68 26 Oct 20:29:12 20:36:14 63° 68° (ENE) 20:43:19 435.675 MHz FM
Oscar 11 26 Oct 20:30:40 20:33:08 15° 62° (ENE) 20:35:37 145.825 FM, Beacon 2401.500 USB
SO-50 26 Oct 20:50:30 20:55:15 55° 51° (NE) 21:00:03 436.795 FM
ZACube-1 26 Oct 21:24:30 21:28:11 25° 67° (ENE) 21:31:49 437.345 MHz
UKube-1 26 Oct 21:24:53 21:29:09 60° 73° (ENE) 21:33:28 145.840 MHz, 145.915 MHz
RS-15 26 Oct 21:37:54 21:48:18 51° 112° (ESE) 21:58:37 29.354 - 29.394 USB, Beacon 29.352 USB
STRAND 1 26 Oct 21:50:19 21:51:51 11° 305° (NW) 21:53:23 ?
KITSAT 1 26 Oct 21:58:54 22:06:33 48° 248° (WSW) 22:14:10 435.175 FM
UOSAT-12 26 Oct 22:02:57 22:07:13 32° 44° (NE) 22:11:24 437.025 FM, 437.400 FM
Oscar 11 26 Oct 22:04:35 22:08:51 58° 259° (W) 22:13:08 145.825 FM, Beacon 2401.500 USB
FUNcube-1 26 Oct 22:07:41 22:12:13 65° 74° (ENE) 22:16:41 145.950 - 145.970 MHz USB
HO-68 26 Oct 22:18:32 22:24:24 27° 267° (W) 22:30:19 435.675 MHz FM
SO-50 26 Oct 22:31:48 22:35:29 22° 248° (WSW) 22:39:10 436.795 FM
MaSat-1 26 Oct 22:36:09 22:38:53 18° 108° (ESE) 22:41:27 437.345 MHz
ZACube-1 26 Oct 23:00:10 23:04:24 36° 263° (W) 23:08:35 437.345 MHz
UKube-1 26 Oct 23:03:31 23:05:44 14° 269° (W) 23:07:58 145.840 MHz, 145.915 MHz
UOSAT-12 26 Oct 23:43:03 23:47:26 38° 243° (WSW) 23:51:43 437.025 FM, 437.400 FM
FUNcube-1 26 Oct 23:46:45 23:48:59 14° 270° (W) 23:51:14 145.950 - 145.970 MHz USB
RS-15 26 Oct 23:49:57 00:00:36 54° 316° (NW) 00:11:21 29.354 - 29.394 USB, Beacon 29.352 USB
MaSat-1 27 Oct 00:10:28 00:14:15 40° 301° (WNW) 00:17:40 437.345 MHz
JAS-1B 27 Oct 01:30:46 01:36:28 27° 95° (E) 01:42:56 435.800 - 435.900 CW/SSB
Oscar 16 27 Oct 01:38:18 01:42:30 25° 94° (E) 01:46:40 437.025 USB, Beacon 2401.1428
Uribyol 2 27 Oct 02:02:38 02:06:10 18° 91° (E) 02:09:40 436.500 FM
RS-15 27 Oct 02:07:21 02:16:10 27° 348° (NNW) 02:25:08 29.354 - 29.394 USB, Beacon 29.352 USB
PCSat 27 Oct 02:07:44 02:09:30 12° 102° (ESE) 02:11:16 145.825 MHz
ITAMSAT 1 27 Oct 02:09:06 02:12:52 20° 92° (E) 02:16:35 435.822 SSB
Oscar 19 27 Oct 02:30:43 02:35:51 74° 103° (ESE) 02:40:58 437.125 CW, 437.150 USB
Gurwin Techsat 1B 27 Oct 02:42:31 02:46:37 22° 92° (E) 02:50:40 435.225 FM
TMSAT-1 27 Oct 02:52:21 02:56:13 20° 92° (E) 03:00:04 436.925 FM
